Regional Weather Roundup
Issued by NWS Key West, FL

Current Version | Previous Version | Text Only | Print | Product List | Glossary On
Versions: 1 2 3 4 5 6 7 8 9 10 11 12 13 14 15 16 17 18 19 20 21 22 23 24 25 26 27
000
ASUS42 KKEY 301210
RWRKEY

FLORIDA KEYS REGIONAL WEATHER ROUNDUP
NATIONAL WEATHER SERVICE KEY WEST FLORIDA
800 AM EDT FRI SEP 30 2022

...FLORIDA KEYS...

CITY           SKY/WX    TMP DP  RH WIND       PRES   REMARKS
KEY WEST       CLEAR     76  70  82 N12       29.80R
BOCA CHICA NAS CLEAR     80  69  69 N15       29.79R
MARATHON       PTCLDY    73  66  78 N12G21    29.79R

...SOUTH FLORIDA...

CITY           SKY/WX    TMP DP  RH WIND       PRES   REMARKS
HOMESTEAD      CLEAR     68  64  89 NW7       29.77R
WEST KENDALL   CLEAR     69  63  81 N9        29.79R
MIAMI          PTCLDY    70  64  81 VRB5      29.79R
OPA LOCKA      CLEAR     68  62  81 NW10      29.79R
PEMBROKE PINES CLEAR     68  62  81 NW9       29.80R
FT LAUDERDALE  PTCLDY    69  62  78 NW8       29.78R
FT LAUD EXEC   CLEAR     69  64  84 NW9       29.78R
POMPANO BEACH  CLEAR     68  62  81 NW12      29.78R
BOCA RATON     CLEAR     68  63  83 NW7       29.79R
WEST PALM BCH  CLEAR     67  62  84 NW7       29.79R

...SOUTHWEST FLORIDA...

CITY           SKY/WX    TMP DP  RH WIND       PRES   REMARKS
MARCO ISLAND   NOT AVBL
NAPLES           N/A    N/A N/A N/A MISG      29.81R
FT MYERS-SW AP NOT AVBL
FORT MYERS     NOT AVBL

...ADJACENT COASTAL WATERS...

STATION/POSITION TIME  SKY/WX   TEMP    WIND        PRES    WAVE
                                AIR SEA DIR/SP/G            HT/PER
                 (UTC)          (F)     (DEG/KT/KT) (MB)    (FT/S)
PULASKI SHOAL LT NOT AVBL
SAND KEY         NOT AVBL
SOMBRERO KEY     1150            74     340/ 16/ 19 1007.6R
LONG KEY         1150            72     360/ 14/ 17 1008.1R
FOWEY ROCKS      NOT AVBL
SATAN SHL BUOY   1130               83                N/A     3/ 3
PULLEY RDG BUOY  1126               81                N/A     5/ 8

...INTERNATIONAL WEATHER...

CITY           SKY/WX    TMP DP  RH WIND       PRES   REMARKS
NASSAU         MOSUNNY   81  73  78 VRB2      29.78R
HAVANA         CLOUDY    73  73 100 S2        29.80S
VARADERO       MOCLDY    75  73  94 VRB2      29.80R
CANCUN         MOCLDY    73  73 100 NW7       29.85R
COZUMEL        CLOUDY    79  72  78 N12       29.83R
KINGSTON       PTSUNNY   79  73  83 NW5       29.77R
BELIZE CITY      N/A     72  70  94 W3        29.89R

$$



USA.gov is the U.S. government's official web portal to all federal, state and local government web resources and services.